This is the latest recevied weather packets stored in our database for station/object NO9B. If no packets are shown the sender has not sent any weather packets the latest 10 day(s).
| Time | Temp. | Humidity | Pressure | Rain* | Wind** | Luminosity | Snow |
|---|---|---|---|---|---|---|---|
| 1788109474 | 30° C | 61% | 1013.8 hPa | 0 mm | - | 557 W/m² | - |
| 1788109172 | 30° C | 65% | 1014.1 hPa | 0 mm | - | 537 W/m² | - |
| 1788108869 | 29.44° C | 60% | 1014.1 hPa | 0 mm | - | 508 W/m² | - |
| 1788108565 | 29.44° C | 60% | 1014.3 hPa | 0 mm | - | 519 W/m² | - |
| 1788108260 | 29.44° C | 66% | 1013.9 hPa | 0 mm | - | 496 W/m² | - |
| 1788107968 | 28.89° C | 66% | 1014.1 hPa | 0 mm | - | 481 W/m² | - |
| 1788107652 | 28.89° C | 67% | 1014.3 hPa | 0 mm | - | 424 W/m² | - |
| 1788107352 | 28.89° C | 70% | 1014.1 hPa | 0 mm | - | 92 W/m² | - |
| 1788107049 | 28.33° C | 70% | 1014.1 hPa | 0 mm | - | 80 W/m² | - |
| 1788106748 | 28.33° C | 70% | 1014.5 hPa | 0 mm | - | 74 W/m² | - |
| 1788106449 | 27.78° C | 71% | 1014.4 hPa | 0 mm | - | 76 W/m² | - |
| 1788106149 | 27.78° C | 70% | 1014.4 hPa | 0 mm | - | 77 W/m² | - |
| 1788105845 | 27.78° C | 71% | 1014.5 hPa | 0 mm | - | 65 W/m² | - |
| 1788105540 | 27.78° C | 71% | 1014.5 hPa | 0 mm | - | 67 W/m² | - |
| 1788105236 | 27.22° C | 71% | 1014.5 hPa | 0 mm | - | 81 W/m² | - |
| 1788104931 | 27.22° C | 73% | 1014.6 hPa | 0 mm | - | 84 W/m² | - |
| 1788104627 | 26.67° C | 75% | 1014.7 hPa | 0 mm | - | 69 W/m² | - |
| 1788104323 | 26.67° C | 72% | 1014.7 hPa | 0 mm | - | 62 W/m² | - |
| 1788104018 | 26.67° C | 73% | 1014.7 hPa | 0 mm | - | 58 W/m² | - |
| 1788103717 | 26.11° C | 73% | 1014.6 hPa | 0 mm | - | 55 W/m² | - |
| 1788103412 | 26.11° C | 76% | 1014.5 hPa | 0 mm | - | 52 W/m² | - |
| 1788103112 | 26.11° C | 74% | 1014.5 hPa | 0 mm | - | 52 W/m² | - |
| 1788102811 | 25.56° C | 76% | 1014.4 hPa | 0 mm | - | 50 W/m² | - |
| 1788102507 | 25.56° C | 78% | 1014.7 hPa | 0 mm | - | 49 W/m² | - |
| 1788102206 | 25° C | 78% | 1014.7 hPa | 0 mm | - | 48 W/m² | - |
* Rain latest hour (hover to see other rain measurements)
** Current wind speed in m/s (hover to see current wind gust speed)